BEIDOU-3 IGSO-1

Last updated on Sept. 30, 2020, 5:50 a.m. UTC

1 44204U 19023A   20273.68950600 -.00000189  00000-0  10000-3 0  9990
2 44204  55.6482  59.7668 0018794 179.6862 130.3588  1.00262611  5434
UTC
Height (km)
Latitude
Longitude
Inclination
Orbital Period
UTC large
Height (km)
Speed (km/s)
/
Latitude / Longitude
Inclination (degrees)
Orbital Period (minutes)
Azimuth
Elevation
Range (km)
Doppler Factor
iOS Compass Heading
iOS Angle

Next 30 passes for location: Hong Kong

Rise time Rise Azimuth (degrees) Set time Set Azimuth (degrees) Duration Max altitude (degrees)

No matching passes for this satellites